TimePST,TemperatureF,Dew PointF,Humidity,Sea Level PressureIn,VisibilityMPH,Wind Direction,Wind SpeedMPH,Gust SpeedMPH,PrecipitationIn,Events,Conditions,WindDirDegrees,DateUTC
12:56 AM,54.0,30.9,41,30.21,10.0,South,8.1,-,N/A,,Clear,190,2012-11-23 08:56:00
1:56 AM,52.0,30.9,45,30.22,10.0,SSW,8.1,-,N/A,,Clear,210,2012-11-23 09:56:00
2:56 AM,50.0,30.9,48,30.22,10.0,SSW,8.1,-,N/A,,Clear,210,2012-11-23 10:56:00
3:56 AM,50.0,30.0,46,30.22,10.0,SSW,9.2,-,N/A,,Clear,200,2012-11-23 11:56:00
4:56 AM,48.9,30.0,48,30.24,10.0,SSW,5.8,-,N/A,,Clear,210,2012-11-23 12:56:00
5:56 AM,48.0,30.0,50,30.25,10.0,SSW,4.6,-,N/A,,Clear,210,2012-11-23 13:56:00
6:56 AM,48.9,28.9,46,30.28,10.0,SSW,8.1,-,N/A,,Clear,200,2012-11-23 14:56:00
7:56 AM,54.0,28.9,38,30.29,10.0,South,8.1,-,N/A,,Clear,190,2012-11-23 15:56:00
8:56 AM,59.0,27.0,29,30.30,10.0,Calm,Calm,-,N/A,,Clear,0,2012-11-23 16:56:00
9:56 AM,62.6,28.4,27,30.31,10.0,Calm,Calm,-,N/A,,Clear,0,2012-11-23 17:56:00
10:56 AM,64.9,28.0,25,30.27,10.0,South,3.5,-,N/A,,Clear,190,2012-11-23 18:56:00
11:56 AM,66.0,27.0,23,30.24,10.0,South,4.6,-,N/A,,Clear,180,2012-11-23 19:56:00
12:56 PM,70.0,25.0,18,30.21,10.0,Calm,Calm,-,N/A,,Clear,0,2012-11-23 20:56:00
1:56 PM,71.1,24.1,17,30.18,10.0,Calm,Calm,-,N/A,,Clear,0,2012-11-23 21:56:00
2:56 PM,72.0,23.0,16,30.17,10.0,Calm,Calm,-,N/A,,Clear,0,2012-11-23 22:56:00
3:56 PM,70.0,23.0,17,30.17,10.0,SSW,4.6,-,N/A,,Clear,200,2012-11-23 23:56:00
4:56 PM,66.9,26.1,21,30.16,10.0,SW,6.9,-,N/A,,Clear,220,2012-11-24 00:56:00
5:56 PM,64.9,27.0,24,30.17,10.0,SW,9.2,-,N/A,,Clear,220,2012-11-24 01:56:00
6:56 PM,60.1,27.0,28,30.18,10.0,SSW,10.4,-,N/A,,Clear,200,2012-11-24 02:56:00
7:56 PM,57.9,27.0,31,30.18,10.0,SSW,9.2,-,N/A,,Clear,200,2012-11-24 03:56:00
8:56 PM,55.9,26.1,32,30.18,10.0,SSW,9.2,-,N/A,,Clear,200,2012-11-24 04:56:00
9:56 PM,55.0,25.0,31,30.18,10.0,SSW,9.2,-,N/A,,Clear,200,2012-11-24 05:56:00
10:56 PM,54.0,23.0,30,30.17,10.0,SW,6.9,-,N/A,,Clear,220,2012-11-24 06:56:00
11:56 PM,53.6,24.8,33,30.19,10.0,SW,8.1,-,N/A,,Clear,220,2012-11-24 07:56:00